Tracking 30402 objects as of 13-May-2025
HD Live streaming from Space Station
objects crossing your sky now

ARIANE 44LP R/B

Track ARIANE 44LP R/B now!
10-day predictions


NORAD ID: 26591
Int'l Code: 2000-068B
Perigee: 316.5 km
Apogee: 25,131.0 km
Inclination: 6.9 °
Period: 437.7 minutes
Semi major axis: 19094 km
RCS: 22.6845 m2 (large)
Launch date: October 29, 2000
Source: France (FR)
Launch site: FRENCH GUIANA (FRGUI)

Note: This is a ROCKET BODY
Your satellite tracking list
Your tracking list is empty




NASA's NSSDC Master Catalog

Two Line Element Set (TLE):
1 26591U 00068B   25132.57199033  .00002956  00000-0  12460-2 0  9994
2 26591   6.8953 330.5688 6497715   4.1389 359.3935  3.29027517246334
Source of the keplerian elements: AFSPC